This is the latest recevied weather packets stored in our database for station/object WP3XM. If no packets are shown the sender has not sent any weather packets the latest 10 day(s).
| Time | Temp. | Humidity | Pressure | Rain* | Wind** | Luminosity | Snow |
|---|---|---|---|---|---|---|---|
| 1777330443 | 27.22° C | 81% | 1017.2 hPa | 0 mm | - | 0 W/m² | - |
| 1777330140 | 27.22° C | 81% | 1017.4 hPa | 0 mm | - | 1 W/m² | - |
| 1777329838 | 27.22° C | 80% | 1017.2 hPa | 0 mm | - | 2 W/m² | - |
| 1777329536 | 27.22° C | 80% | 1017.3 hPa | 0 mm | - | 5 W/m² | - |
| 1777329234 | 27.22° C | 79% | 1017.4 hPa | 0 mm | - | 8 W/m² | - |
| 1777328931 | 27.22° C | 80% | 1017 hPa | 0 mm | - | 12 W/m² | - |
| 1777328629 | 27.22° C | 79% | 1017.2 hPa | 0 mm | - | 16 W/m² | - |
| 1777328327 | 27.22° C | 80% | 1017 hPa | 0 mm | - | 22 W/m² | - |
| 1777328025 | 27.22° C | 80% | 1017.1 hPa | 0 mm | - | 28 W/m² | - |
| 1777327723 | 27.22° C | 80% | 1016.7 hPa | 0 mm | - | 28 W/m² | - |
| 1777327420 | 27.22° C | 80% | 1016.7 hPa | 0 mm | - | 25 W/m² | - |
| 1777327118 | 27.22° C | 80% | 1016.8 hPa | 0 mm | - | 28 W/m² | - |
| 1777326813 | 27.78° C | 79% | 1016.8 hPa | 0 mm | - | 34 W/m² | - |
| 1777326511 | 27.22° C | 79% | 1016.6 hPa | 0 mm | - | 40 W/m² | - |
| 1777326209 | 27.78° C | 79% | 1016.6 hPa | 0 mm | - | 68 W/m² | - |
| 1777325907 | 27.78° C | 79% | 1016.7 hPa | 0 mm | - | 87 W/m² | - |
| 1777325605 | 27.78° C | 79% | 1016.6 hPa | 0 mm | - | 106 W/m² | - |
| 1777325302 | 28.33° C | 77% | 1016.5 hPa | 0 mm | - | 108 W/m² | - |
| 1777325000 | 27.78° C | 79% | 1016.6 hPa | 0 mm | - | 127 W/m² | - |
| 1777324696 | 27.78° C | 77% | 1016.5 hPa | 0 mm | - | 103 W/m² | - |
| 1777324394 | 27.78° C | 78% | 1016.3 hPa | 0 mm | - | 122 W/m² | - |
| 1777324091 | 27.78° C | 78% | 1016.3 hPa | 0 mm | - | 140 W/m² | - |
| 1777323788 | 27.78° C | 78% | 1016.4 hPa | 0 mm | - | 135 W/m² | - |
| 1777323486 | 27.78° C | 79% | 1016.4 hPa | 0 mm | - | 130 W/m² | - |
| 1777323183 | 27.78° C | 80% | 1016.2 hPa | 0 mm | - | 155 W/m² | - |
* Rain latest hour (hover to see other rain measurements)
** Current wind speed in m/s (hover to see current wind gust speed)